N7MLR Weather Reports


time (UTC)temp
F
wind
direction
speed
knots
gust
knots
rain 1hr
in
rain 24hr
in
rain mn
in
humidity
%
barometer
mb
20260503222433 79 231 0.9 1.7 0.00 0.00 0.00 39 1017.4
20260503221931 79 210 0.9 0.9 0.00 0.00 0.00 40 1017.5
20260503221429 77 91 3.5 5.2 0.00 0.00 0.00 37 1017.5
20260503220926 77 230 1.7 1.7 0.00 0.00 0.00 42 1017.7
20260503220422 78 247 0.9 1.7 0.00 0.00 0.00 40 1017.9
20260503215919 79 240 0.9 0.9 0.00 0.00 0.00 39 1017.6
20260503215416 77 216 0.9 0.9 0.00 0.00 0.00 39 1018.1
20260503214914 78 239 0.9 1.7 0.00 0.00 0.00 41 1018.0
20260503214411 79 247 0.9 1.7 0.00 0.00 0.00 39 1018.3
20260503213908 78 217 0.9 0.9 0.00 0.00 0.00 39 1018.3
20260503213406 79 264 0.9 1.7 0.00 0.00 0.00 39 1018.1
20260503212902 78 240 1.7 4.3 0.00 0.00 0.00 38 1018.2
20260503212400 79 208 2.6 2.6 0.00 0.00 0.00 38 1018.3
20260503211857 79 206 0.9 0.9 0.00 0.00 0.00 40 1018.3
20260503211354 78 142 0.9 1.7 0.00 0.00 0.00 40 1018.6
20260503210849 78 221 2.6 4.3 0.00 0.00 0.00 39 1018.5
20260503210347 78 320 4.3 6.1 0.00 0.00 0.00 40 1018.4
20260503205841 78 145 1.7 1.7 0.00 0.00 0.00 42 1019.0
20260503205339 79 100 3.5 5.2 0.00 0.00 0.00 40 1019.2
20260503204835 78 177 1.7 1.7 0.00 0.00 0.00 40 1019.0
20260503204332 78 206 0.9 1.7 0.00 0.00 0.00 41 1019.2
20260503203829 78 219 1.7 2.6 0.00 0.00 0.00 38 1019.2
20260503203327 78 39 2.6 4.3 0.00 0.00 0.00 37 1019.1
20260503202824 78 92 2.6 2.6 0.00 0.00 0.00 42 1019.4
20260503202322 77 175 0.9 0.9 0.00 0.00 0.00 42 1019.8
20260503201820 77 94 1.7 2.6 0.00 0.00 0.00 43 1019.5
20260503201316 77 227 0.9 1.7 0.00 0.00 0.00 43 1019.8
20260503200814 78 219 1.7 1.7 0.00 0.00 0.00 40 1020.1
20260503200310 77 178 0.9 0.9 0.00 0.00 0.00 42 1019.9
20260503195807 77 164 0.0 0.9 0.00 0.00 0.00 42 1020.0
20260503195304 77 223 1.7 1.7 0.00 0.00 0.00 45 1019.9
20260503194801 77 170 0.9 0.9 0.00 0.00 0.00 44 1020.3
20260503194256 76 150 2.6 2.6 0.00 0.00 0.00 43 1020.1
20260503193753 77 109 2.6 2.6 0.00 0.00 0.00 40 1020.2
20260503193249 77 221 0.9 0.9 0.00 0.00 0.00 43 1020.4
20260503192745 78 37 2.6 4.3 0.00 0.00 0.00 41 1020.5
20260503192240 78 234 1.7 2.6 0.00 0.00 0.00 41 1020.6
20260503191737 77 109 2.6 2.6 0.00 0.00 0.00 41 1020.5
20260503191234 78 79 2.6 2.6 0.00 0.00 0.00 40 1020.8
20260503190731 77 130 1.7 1.7 0.00 0.00 0.00 40 1020.8
20260503190228 77 167 1.7 1.7 0.00 0.00 0.00 40 1020.8
20260503185725 77 163 1.7 1.7 0.00 0.00 0.00 39 1020.7
20260503185221 76 110 2.6 2.6 0.00 0.00 0.00 40 1020.8
20260503184715 76 249 1.7 2.6 0.00 0.00 0.00 39 1020.8
20260503184212 77 42 2.6 4.3 0.00 0.00 0.00 39 1021.2
20260503183708 77 172 2.6 4.3 0.00 0.00 0.00 37 1021.4
20260503183206 76 111 1.7 2.6 0.00 0.00 0.00 41 1021.3
20260503182704 77 200 2.6 4.3 0.00 0.00 0.00 38 1021.3
20260503182202 77 220 1.7 1.7 0.00 0.00 0.00 38 1021.3
20260503181658 77 238 2.6 5.2 0.00 0.00 0.00 39 1021.2
20260503181155 77 257 1.7 1.7 0.00 0.00 0.00 37 1021.5
20260503180652 76 266 2.6 4.3 0.00 0.00 0.00 38 1021.6
20260503180150 77 272 1.7 2.6 0.00 0.00 0.00 37 1021.6
20260503175647 76 219 0.9 1.7 0.00 0.00 0.00 40 1021.8
20260503175144 77 235 1.7 1.7 0.00 0.00 0.00 40 1021.9
20260503174640 77 224 1.7 2.6 0.00 0.00 0.00 40 1022.0
20260503174138 76 189 0.9 0.9 0.00 0.00 0.00 40 1022.2
20260503173633 77 215 0.9 1.7 0.00 0.00 0.00 39 1022.3
20260503173130 77 298 3.5 5.2 0.00 0.00 0.00 37 1022.3
20260503172626 76 200 1.7 1.7 0.00 0.00 0.00 38 1022.4
20260503172124 76 237 3.5 6.1 0.00 0.00 0.00 40 1022.3
20260503171620 75 262 1.7 1.7 0.00 0.00 0.00 39 1022.5
20260503171118 75 185 1.7 1.7 0.00 0.00 0.00 40 1022.7
20260503170615 75 241 1.7 2.6 0.00 0.00 0.00 44 1023.0
20260503170111 75 179 1.7 1.7 0.00 0.00 0.00 44 1022.5
20260503151006 70 238 1.7 1.7 0.00 0.00 0.00 56 1023.2
20260503150503 69 170 0.9 0.9 0.00 0.00 0.00 59 1023.3
20260503131356 54 201 0.0 0.0 0.00 0.00 0.00 99 1022.5
20260503130853 52 200 0.0 0.0 0.00 0.00 0.00 99 1022.4
20260503130350 53 200 0.0 0.0 0.00 0.00 0.00 99 1022.3
20260503110744 46 201 0.0 0.0 0.00 0.00 0.00 99 1021.4
20260503110241 46 201 0.0 0.0 0.00 0.00 0.00 99 1021.6
20260503100207 46 202 0.0 0.0 0.00 0.00 0.00 99 1021.3
20260503090132 47 202 0.0 0.0 0.00 0.00 0.00 99 1021.0
20260503081602 48 202 0.0 0.0 0.00 0.00 0.00 98 1021.2
20260503081100 48 202 0.0 0.0 0.00 0.00 0.00 98 1021.2
20260503080555 49 202 0.0 0.0 0.00 0.00 0.00 98 1020.9
20260503072529 49 202 0.0 0.0 0.00 0.00 0.00 98 1021.4
20260503072026 48 202 0.0 0.0 0.00 0.00 0.00 97 1021.5
20260503071523 49 202 0.0 0.0 0.00 0.00 0.00 97 1021.5
20260503071020 49 202 0.0 0.0 0.00 0.00 0.00 97 1021.7
20260503070516 49 202 0.0 0.0 0.00 0.00 0.00 97 1021.8
20260503054940 50 202 0.0 0.0 0.00 0.00 0.00 96 1022.0
20260503054436 50 202 0.0 0.0 0.00 0.00 0.00 95 1021.7
20260503053934 50 202 0.0 0.0 0.00 0.00 0.00 95 1021.7
20260503053432 51 202 0.0 0.0 0.00 0.00 0.00 95 1021.7
20260503052928 51 202 0.0 0.0 0.00 0.00 0.00 95 1021.8
20260503052425 50 202 0.0 0.0 0.00 0.00 0.00 95 1021.7
20260503051921 51 200 0.0 0.0 0.00 0.00 0.00 95 1021.9
20260503051418 51 202 0.0 0.0 0.00 0.00 0.00 94 1021.9
20260503050915 51 202 0.0 0.0 0.00 0.00 0.00 95 1021.8
20260503050411 51 202 0.0 0.0 0.00 0.00 0.00 94 1021.8
20260503045908 51 200 0.0 0.0 0.00 0.00 0.00 94 1021.6
20260503045406 51 202 0.0 0.0 0.00 0.00 0.00 93 1021.9
20260503044903 52 202 0.0 0.0 0.00 0.00 0.00 93 1021.9
20260503044359 52 202 0.0 0.0 0.00 0.00 0.00 93 1021.7
20260503043856 52 202 0.0 0.0 0.00 0.00 0.00 93 1021.6
20260503043353 52 202 0.0 0.0 0.00 0.00 0.00 93 1021.7
20260503042849 52 202 0.0 0.0 0.00 0.00 0.00 92 1021.7
20260503042346 52 200 0.0 0.0 0.00 0.00 0.00 92 1021.9
20260503041842 52 200 0.0 0.0 0.00 0.00 0.00 92 1022.0
20260503041340 52 200 0.0 0.0 0.00 0.00 0.00 91 1021.7
20260503040837 52 202 0.0 0.0 0.00 0.00 0.00 92 1021.8
20260503040335 52 202 0.0 0.0 0.00 0.00 0.00 92 1021.6
20260503035831 53 202 0.0 0.0 0.00 0.00 0.00 93 1021.8
20260503035328 53 200 0.0 0.0 0.00 0.00 0.00 93 1021.6
20260503034826 53 200 0.0 0.0 0.00 0.00 0.00 92 1021.5
20260503034323 53 200 0.0 0.0 0.00 0.00 0.00 91 1021.5
20260503033820 53 200 0.0 0.0 0.00 0.00 0.00 90 1021.6
20260503033318 53 200 0.0 0.0 0.00 0.00 0.00 90 1021.6
20260503032815 53 200 0.0 0.0 0.00 0.00 0.00 89 1021.5
20260503032314 53 200 0.0 0.0 0.00 0.00 0.00 89 1021.3
20260503031811 54 200 0.0 0.0 0.00 0.00 0.00 89 1021.4
20260503031309 55 200 0.0 0.0 0.00 0.00 0.00 88 1021.3
20260503030805 55 200 0.0 0.0 0.00 0.00 0.00 89 1021.4
20260503030301 55 200 0.0 0.0 0.00 0.00 0.00 88 1021.2
20260503025758 55 200 0.0 0.0 0.00 0.00 0.00 88 1021.0
20260503025256 54 200 0.0 0.0 0.00 0.00 0.00 86 1021.0
20260503024752 55 200 0.0 0.0 0.00 0.00 0.00 86 1020.9
20260503024249 55 200 0.0 0.0 0.00 0.00 0.00 85 1020.9
20260503023746 56 200 0.0 0.0 0.00 0.00 0.00 83 1021.1
20260503023243 57 200 0.0 0.0 0.00 0.00 0.00 83 1021.1
20260503022739 57 200 0.0 0.0 0.00 0.00 0.00 82 1020.8
20260503022234 57 200 0.0 0.0 0.00 0.00 0.00 81 1020.8
20260503021731 58 200 0.0 0.0 0.00 0.00 0.00 80 1020.6
20260503021227 58 200 0.0 0.0 0.00 0.00 0.00 80 1020.7
20260503020725 59 200 0.0 0.0 0.00 0.00 0.00 79 1020.5
20260503020222 59 200 0.0 0.0 0.00 0.00 0.00 78 1020.5
20260503015719 59 200 0.0 0.0 0.00 0.00 0.00 77 1020.4
20260503015216 59 200 0.0 0.0 0.00 0.00 0.00 75 1020.4
20260503014711 60 200 0.0 0.9 0.00 0.00 0.00 74 1020.1
20260503014210 60 200 0.0 0.0 0.00 0.00 0.00 73 1020.0
20260503013707 61 200 0.0 0.0 0.00 0.00 0.00 71 1019.9
20260503013205 62 201 0.0 0.0 0.00 0.00 0.00 68 1019.8
20260503012702 63 201 0.0 0.0 0.00 0.00 0.00 65 1019.8
20260503012158 64 200 0.0 0.0 0.00 0.00 0.00 65 1019.9
20260503011654 65 198 0.0 0.0 0.00 0.00 0.00 59 1019.5
20260503011152 66 198 0.9 0.9 0.00 0.00 0.00 59 1019.8
20260503010648 66 204 0.9 0.9 0.00 0.00 0.00 56 1019.6
20260503010145 67 202 0.0 0.9 0.00 0.00 0.00 55 1019.9
20260503005642 67 203 0.0 0.0 0.00 0.00 0.00 53 1019.4
20260503005139 68 203 0.0 0.9 0.00 0.00 0.00 50 1019.5
20260503004636 69 203 0.0 0.9 0.00 0.00 0.00 48 1019.8
20260503004134 69 203 0.9 0.9 0.00 0.00 0.00 46 1019.5
20260503003631 69 204 0.0 0.0 0.00 0.00 0.00 47 1019.5
20260503003128 70 204 0.9 1.7 0.00 0.00 0.00 44 1019.5
20260503002625 70 202 0.0 0.9 0.00 0.00 0.00 46 1019.5
20260503002122 70 202 0.0 0.9 0.00 0.00 0.00 44 1019.6
20260503001618 70 205 2.6 4.3 0.00 0.00 0.00 44 1019.5
20260503001115 71 206 0.9 1.7 0.00 0.00 0.00 44 1019.6
20260503000612 71 222 0.9 1.7 0.00 0.00 0.00 43 1019.8
20260503000110 71 207 1.7 2.6 0.00 0.00 0.00 42 1019.6
20260502235606 71 207 0.9 0.9 0.00 0.00 0.00 42 1019.9
20260502235104 71 203 0.9 0.9 0.00 0.00 0.00 43 1019.6
20260502234559 71 210 1.7 1.7 0.00 0.00 0.00 42 1019.4
20260502234058 72 206 0.9 1.7 0.00 0.00 0.00 44 1019.6
20260502233558 72 214 1.7 1.7 0.00 0.00 0.00 43 1019.6
20260502233055 72 207 2.6 2.6 0.00 0.00 0.00 43 1019.5
20260502232551 71 205 3.5 4.3 0.00 0.00 0.00 42 1019.5
20260502232049 72 208 2.6 4.3 0.00 0.00 0.00 42 1019.4
20260502231545 73 191 0.0 0.9 0.00 0.00 0.00 44 1019.4
20260502231043 73 201 0.9 0.9 0.00 0.00 0.00 44 1019.6
20260502230541 72 200 3.5 5.2 0.00 0.00 0.00 41 1019.5
20260502230039 73 223 0.9 0.9 0.00 0.00 0.00 44 1019.6
20260502225534 72 202 0.9 0.9 0.00 0.00 0.00 42 1019.4
20260502225032 72 219 1.7 1.7 0.00 0.00 0.00 43 1019.3
20260502224528 72 190 2.6 5.2 0.00 0.00 0.00 41 1019.5
20260502224025 72 195 2.6 6.1 0.00 0.00 0.00 41 1019.2
20260502223523 73 198 4.3 7.0 0.00 0.00 0.00 40 1019.3
20260502223021 73 210 2.6 4.3 0.00 0.00 0.00 42 1019.4